Temp
-7 -7 -7 -7 -6 -7 -7 -6 -6 -7 -7 -7 -7 -7 -7 -7 -7 -7 -7 -6 -7 -7 -7 -7 -7 -7 -7 -7 -7 -7 -7 -7 -7 -7 -7 -7 -7 -7 -7 -7 -7 -7 -7
-7 -7 -7 -7 -7 -7 -7 -7 -7 -7 -7 -7 -7 -7 -7 -7 -7 -7 -7 -7 -7 -7 -7 -6 -6 -7 -7 -7 -7 -7 -8 -7 -7 -7 -7 -7 -7 -7 -7 -7 -7 -7 -7
-6 -7 -7 -7 -7 -7 -7 -6 -6 -6 -6 -7 -7 -7 -7 -7 -7 -7 -7 -7 -7 -7 -7 -7 -7 -7 -7 -7 -7 -7 -7 -7 -7 -7 -7 -7 -7 -7 -7 -7 -7 -7 -7
-7 -6 -6 -6 -6 -6 -6 -6 -6 -6 -6 -6 -6 -7 -7 -7 -7 -7 -7 -7 -7 -7 -7 -7 -7 -7 -7 -7 -7 -7 -7 -7 -7 -8 -7 -8 -7 -7 -7 -7 -7 -7 -7
-7 -7 -7 -7 -7 -7 -7 -7 -7 -6 -6 -6 -6 -6 -6 -6 -7 -7 -7 -6 -6 -7 -7 -7 -7 -7 -7 -7 -7 -7 -7 -7 -7 -7 -8 -8 -8 -7 -7 -7 -7 -7 -7
-7 -7 -7 -7 -7 -7 -7 -7 -7 -7 -7 -6 -6 -6 -6 -6 -6 -6 -6 -6 -6 -6 -7 -7 -7 -7 -7 -7 -7 -7 -7 -7 -7 -7 -7 -8 -7 -7 -7 -7 -7 -7 -7
-7 -7 -7 -7 -7 -7 -7 -7 -7 -7 -7 -7 -7 -7 -7 -7 -7 -7 -7 -6 -6 -6 -6 -6 -7 -7 -7 -7 -7 -7 -7 -7 -7 -7 -7 -7 -7 -7 -7 -7 -7 -7 -7
-8 -7 -7 -8 -7 -7 -7 -7 -7 -7 -7 -7 -7 -7 -7 -7 -7 -7 -7 -7 -6 -6 -6 -6 -6 -7 -7 -7 -7 -7 -7 -7 -7 -7 -7 -7 -7 -7 -7 -7 -7 -7 -7
-8 -8 -8 -8 -8 -8 -8 -8 -8 -8 -7 -7 -7 -7 -7 -7 -7 -7 -7 -7 -6 -6 -6 -6 -7 -7 -7 -7 -7 -7 -7 -7 -7 -7 -7 -7 -7 -7 -8 -8 -8 -7 -7
-8 -8 -8 -8 -7 -8 -7 -7 -8 -7 -7 -7 -7 -7 -7 -6 -6 -6 -7 -7 -7 -6 -6 -6 -6 -7 -7 -6 -6 -7 -7 -8 -8 -8 -7 -7 -8 -8 -7 -7 -7 -7 -7
-8 -9 -9 -8 -8 -8 -8 -8 -8 -7 -7 -7 -7 -7 -7 -7 -6 -6 -6 -6 -6 -6 -7 -7 -6 -6 -6 -6 -6 -6 -7 -8 -7 -7 -7 -8 -8 -8 -8 -7 -8 -7 -7
-9 -9 -9 -10 -9 -8 -8 -8 -7 -7 -7 -7 -7 -7 -7 -6 -6 -6 -6 -6 -6 -6 -6 -6 -6 -6 -7 -7 -7 -6 -7 -7 -7 -7 -7 -8 -8 -8 -7 -7 -7 -7 -7
-9 -9 -9 -10 -10 -9 -8 -8 -7 -7 -7 -7 -7 -7 -7 -7 -6 -6 -6 -6 -6 -6 -6 -6 -6 -6 -6 -7 -7 -7 -7 -7 -7 -7 -7 -7 -7 -7 -7 -7 -7 -7 -7
-10 -9 -10 -10 -9 -9 -8 -8 -8 -8 -8 -8 -8 -8 -7 -7 -7 -6 -6 -6 -6 -6 -7 -6 -6 -6 -6 -7 -7 -7 -7 -7 -7 -7 -7 -7 -7 -7 -7 -7 -7 -7 -6
-11 -10 -10 -10 -9 -9 -8 -8 -8 -8 -8 -8 -8 -7 -7 -7 -7 -6 -6 -6 -7 -7 -7 -6 -6 -6 -6 -7 -7 -7 -7 -6 -6 -7 -7 -7 -6 -7 -7 -8 -7 -7 -7
-10 -10 -11 -11 -10 -9 -9 -8 -8 -8 -8 -8 -8 -7 -7 -7 -7 -7 -7 -8 -7 -7 -7 -7 -7 -7 -7 -7 -7 -7 -7 -7 -7 -7 -7 -7 -7 -7 -7 -8 -8 -7 -8
-11 -11 -12 -11 -10 -10 -9 -8 -8 -9 -8 -8 -8 -8 -9 -9 -8 -7 -7 -7 -7 -7 -7 -7 -7 -7 -7 -7 -7 -7 -7 -7 -7 -7 -7 -7 -7 -8 -8 -7 -8 -8 -8
-12 -12 -11 -10 -10 -10 -9 -9 -9 -9 -9 -9 -9 -10 -10 -9 -9 -8 -7 -7 -7 -7 -7 -8 -8 -7 -8 -8 -8 -7 -7 -7 -7 -7 -7 -7 -7 -8 -8 -8 -8 -8 -8
-12 -12 -10 -10 -10 -9 -9 -9 -9 -9 -9 -9 -10 -10 -10 -10 -9 -8 -8 -8 -8 -8 -8 -8 -8 -8 -8 -8 -8 -8 -8 -8 -8 -8 -8 -8 -8 -8 -8 -8 -9 -9 -9
-11 -10 -10 -10 -9 -9 -9 -9 -9 -10 -10 -10 -10 -10 -10 -10 -10 -10 -9 -10 -9 -9 -9 -8 -8 -8 -8 -8 -8 -9 -9 -9 -9 -9 -9 -9 -9 -9 -9 -9 -9 -9 -9
-10 -10 -10 -9 -9 -9 -9 -10 -10 -10 -10 -10 -10 -10 -11 -10 -10 -10 -10 -10 -10 -10 -10 -9 -9 -8 -9 -9 -9 -9 -9 -9 -9 -9 -9 -9 -9 -9 -9 -9 -9 -9 -9
-10 -10 -10 -10 -10 -10 -10 -10 -10 -10 -10 -10 -10 -10 -11 -11 -10 -11 -11 -11 -12 -12 -11 -10 -10 -10 -9 -9 -9 -10 -9 -9 -10 -10 -10 -9 -9 -9 -9 -9 -9 -9 -9
-10 -10 -10 -10 -10 -10 -10 -10 -10 -10 -10 -11 -10 -11 -11 -11 -10 -11 -11 -11 -11 -11 -11 -11 -11 -11 -12 -11 -11 -10 -10 -11 -11 -11 -11 -12 -12 -11 -11 -11 -11 -11 -11
-10 -10 -11 -11 -10 -10 -10 -10 -11 -10 -11 -11 -11 -11 -11 -11 -11 -11 -11 -11 -11 -11 -11 -11 -11 -11 -11 -11 -11 -11 -11 -11 -11 -11 -11 -11 -11 -11 -11 -11 -12 -12 -11
-10 -11 -11 -11 -11 -10 -11 -11 -11 -11 -11 -11 -11 -11 -11 -12 -11 -11 -11 -11 -11 -11 -11 -11 -11 -11 -11 -11 -11 -11 -11 -11 -11 -11 -11 -11 -11 -11 -11 -11 -11 -12 -12
-12 -11 -10 -11 -11 -10 -11 -11 -11 -11 -11 -11 -11 -11 -11 -11 -11 -12 -12 -12 -12 -12 -12 -12 -12 -12 -12 -11 -11 -11 -11 -11 -11 -11 -11 -11 -11 -11 -11 -11 -12 -12 -12
Height
5887 5889 5890 5891 5892 5894 5895 5896 5897 5897 5898 5898 5899 5899 5900 5901 5901 5902 5904 5904 5904 5905 5905 5904 5903 5903 5905 5907 5907 5906 5905 5905 5905 5905 5906 5904 5901 5900 5901 5903 5904 5904 5903
5886 5887 5889 5889 5890 5891 5892 5894 5894 5895 5895 5897 5896 5896 5896 5897 5898 5899 5900 5900 5900 5900 5902 5901 5900 5899 5900 5901 5901 5901 5902 5901 5902 5900 5902 5901 5898 5898 5898 5900 5900 5901 5900
5883 5885 5887 5887 5887 5888 5889 5891 5891 5892 5893 5893 5893 5893 5893 5894 5894 5895 5896 5896 5896 5896 5897 5897 5897 5896 5896 5897 5897 5895 5897 5898 5897 5897 5896 5896 5896 5896 5896 5897 5897 5897 5898
5881 5882 5883 5884 5885 5886 5886 5887 5887 5887 5889 5890 5889 5890 5890 5890 5890 5891 5891 5891 5891 5891 5891 5892 5892 5892 5891 5893 5893 5891 5893 5893 5893 5892 5890 5891 5893 5894 5894 5893 5893 5893 5894
5879 5879 5879 5881 5882 5882 5883 5883 5882 5882 5883 5884 5884 5883 5884 5884 5884 5884 5885 5885 5886 5886 5885 5885 5885 5886 5885 5886 5887 5886 5886 5888 5887 5887 5886 5887 5887 5888 5889 5889 5888 5889 5890
5878 5879 5879 5878 5880 5881 5881 5880 5879 5879 5879 5879 5879 5878 5877 5877 5878 5878 5879 5879 5879 5879 5879 5879 5879 5879 5878 5879 5880 5880 5881 5880 5881 5882 5882 5882 5883 5884 5883 5882 5883 5883 5884
5877 5877 5878 5878 5877 5877 5876 5877 5877 5875 5875 5873 5873 5873 5873 5871 5871 5871 5871 5872 5872 5871 5872 5872 5872 5872 5872 5872 5873 5874 5875 5875 5875 5876 5875 5876 5877 5877 5877 5876 5873 5875 5876
5873 5875 5875 5876 5875 5874 5874 5874 5874 5873 5871 5870 5869 5868 5867 5865 5866 5864 5864 5864 5864 5864 5864 5864 5864 5864 5864 5864 5865 5866 5867 5867 5868 5869 5869 5867 5868 5870 5870 5870 5870 5870 5871
5870 5870 5871 5871 5872 5872 5870 5870 5869 5867 5866 5864 5863 5862 5862 5859 5858 5856 5856 5858 5857 5857 5856 5855 5855 5855 5855 5855 5857 5857 5856 5859 5859 5860 5860 5861 5861 5863 5862 5862 5862 5862 5865
5865 5865 5864 5865 5865 5865 5864 5863 5862 5861 5859 5858 5856 5855 5854 5852 5849 5849 5847 5847 5848 5847 5846 5846 5846 5846 5845 5845 5847 5848 5848 5848 5848 5850 5851 5852 5852 5852 5853 5854 5853 5854 5855
5856 5857 5857 5857 5858 5858 5858 5857 5855 5854 5852 5850 5849 5847 5845 5844 5842 5840 5838 5837 5836 5836 5836 5835 5835 5836 5837 5835 5837 5838 5840 5837 5838 5840 5841 5842 5842 5841 5842 5841 5843 5843 5845
5849 5851 5850 5851 5851 5851 5851 5849 5848 5846 5845 5843 5841 5838 5836 5833 5831 5829 5827 5825 5823 5824 5823 5822 5822 5824 5825 5825 5827 5828 5828 5829 5830 5831 5832 5832 5832 5832 5832 5832 5832 5832 5832
5843 5845 5845 5844 5844 5843 5842 5839 5838 5836 5834 5832 5830 5827 5824 5821 5819 5818 5815 5813 5811 5811 5810 5810 5810 5810 5812 5813 5815 5816 5817 5817 5820 5822 5823 5822 5822 5822 5822 5822 5822 5821 5821
5836 5839 5838 5838 5837 5836 5833 5831 5829 5827 5825 5822 5818 5815 5812 5809 5806 5804 5803 5801 5799 5797 5797 5797 5796 5797 5798 5800 5801 5803 5805 5806 5808 5811 5811 5811 5812 5813 5813 5812 5812 5811 5808
5829 5830 5830 5827 5827 5827 5825 5822 5820 5818 5815 5811 5808 5805 5801 5796 5793 5791 5789 5787 5786 5786 5785 5783 5783 5784 5785 5786 5788 5790 5791 5793 5795 5798 5799 5800 5801 5801 5802 5801 5801 5802 5801
5818 5821 5820 5818 5820 5819 5816 5814 5812 5810 5805 5801 5797 5793 5789 5784 5781 5778 5776 5775 5774 5774 5773 5772 5771 5771 5772 5773 5774 5777 5779 5781 5783 5784 5786 5788 5789 5789 5790 5790 5791 5790 5790
5809 5811 5811 5811 5812 5811 5809 5806 5804 5800 5796 5792 5787 5782 5778 5775 5771 5767 5765 5764 5763 5763 5762 5761 5760 5760 5760 5760 5762 5764 5766 5769 5771 5772 5773 5774 5776 5777 5778 5778 5779 5779 5780
5799 5802 5802 5804 5804 5801 5801 5799 5797 5794 5789 5784 5779 5775 5772 5768 5762 5756 5752 5751 5751 5751 5751 5751 5751 5750 5749 5749 5749 5751 5754 5756 5758 5761 5762 5762 5763 5764 5765 5766 5767 5767 5768
5791 5793 5795 5796 5796 5793 5795 5792 5789 5786 5782 5777 5773 5769 5767 5762 5756 5747 5741 5739 5739 5740 5741 5741 5741 5740 5740 5740 5740 5741 5743 5745 5747 5749 5750 5752 5752 5752 5753 5754 5755 5755 5756
5781 5785 5788 5788 5786 5786 5786 5784 5781 5778 5776 5774 5770 5767 5763 5759 5754 5746 5737 5734 5734 5734 5735 5735 5734 5734 5734 5734 5734 5734 5734 5735 5736 5737 5738 5739 5740 5741 5741 5742 5743 5743 5744
5773 5780 5780 5778 5778 5778 5779 5777 5774 5771 5770 5769 5766 5763 5760 5757 5751 5745 5740 5733 5732 5732 5732 5732 5731 5730 5729 5728 5727 5727 5728 5728 5728 5728 5728 5728 5729 5729 5729 5730 5731 5731 5731
5769 5771 5771 5771 5770 5771 5772 5770 5768 5766 5764 5764 5761 5758 5756 5754 5750 5746 5742 5739 5735 5732 5729 5727 5726 5724 5723 5722 5722 5722 5722 5722 5722 5722 5721 5720 5720 5719 5719 5720 5720 5719 5721
5762 5762 5765 5761 5763 5765 5764 5763 5762 5761 5760 5759 5757 5755 5752 5749 5747 5745 5742 5739 5738 5735 5733 5731 5729 5727 5725 5723 5721 5721 5720 5720 5720 5719 5717 5717 5716 5714 5713 5712 5711 5711 5710
5753 5755 5754 5754 5756 5757 5756 5755 5755 5755 5754 5753 5752 5750 5748 5747 5744 5742 5740 5739 5738 5736 5734 5732 5730 5728 5727 5726 5724 5722 5722 5721 5720 5720 5718 5717 5715 5714 5713 5711 5710 5710 5709
5744 5743 5746 5747 5750 5750 5751 5749 5748 5748 5748 5748 5747 5745 5743 5742 5741 5740 5738 5736 5735 5733 5732 5731 5729 5728 5726 5725 5724 5722 5721 5721 5719 5718 5717 5715 5713 5712 5711 5710 5709 5708 5707
5733 5737 5740 5741 5744 5745 5743 5743 5742 5741 5741 5743 5742 5741 5740 5738 5737 5735 5734 5733 5732 5730 5728 5726 5724 5724 5723 5722 5720 5720 5719 5718 5716 5714 5713 5711 5710 5709 5707 5706 5705 5704 5702
Wind_Speed
8 10 10 10 9 10 9 9 8 9 10 12 14 15 14 12 12 9 13 15 12 11 10 9 10 12 10 10 9 9 8 9 9 9 8 11 11 12 12 8 7 6 5
7 7 9 11 11 12 11 11 10 10 11 13 14 15 15 16 16 16 16 14 13 13 13 12 12 13 13 13 13 14 13 14 14 10 11 9 8 8 13 10 9 9 7
11 11 10 10 10 12 12 12 11 10 11 13 14 15 14 16 18 19 19 18 18 17 17 16 15 16 16 15 17 17 16 16 16 13 11 12 11 8 10 11 12 10 10
12 12 12 10 11 12 12 13 13 13 13 16 17 17 18 19 20 21 22 22 22 22 21 20 21 22 20 20 18 20 17 17 19 20 16 15 16 14 13 14 15 14 14
11 11 10 11 12 13 14 14 14 15 16 19 19 20 22 22 23 24 24 25 24 25 25 24 24 23 23 22 21 20 20 20 19 19 20 18 17 17 21 19 18 16 18
9 9 9 9 10 11 11 12 14 14 16 18 19 19 21 23 25 25 25 25 24 25 26 27 28 26 25 26 23 22 21 22 21 21 19 20 18 20 19 17 18 21 22
9 10 10 10 10 11 11 12 14 14 16 17 18 19 20 22 24 25 24 24 26 28 28 28 29 27 28 29 30 26 25 24 24 26 24 24 23 23 23 22 21 16 14
11 12 12 12 12 12 13 14 15 17 17 17 17 19 21 23 23 26 26 27 27 28 29 31 31 31 32 30 30 28 27 29 30 29 28 28 28 27 26 25 23 22 20
12 13 14 15 16 16 16 15 16 17 16 16 18 19 20 23 25 26 28 28 29 30 31 32 32 32 35 37 34 34 33 30 31 33 30 31 30 29 30 30 30 28 25
10 13 14 15 14 15 17 15 15 18 19 21 22 23 23 24 26 27 28 28 28 31 35 36 35 34 35 35 36 36 37 35 35 32 34 34 36 34 37 36 35 33 30
14 14 13 13 15 16 18 17 23 23 23 23 24 27 29 28 28 28 29 30 32 31 32 37 38 38 37 38 34 33 34 38 36 35 35 33 38 28 33 37 36 38 36
17 15 13 14 17 20 22 25 27 27 26 26 27 29 31 32 32 32 32 34 35 34 35 38 40 40 38 39 39 37 36 36 34 33 32 34 35 32 35 33 36 39 40
16 17 19 20 23 24 27 29 30 29 30 30 33 33 34 35 35 35 37 37 36 35 35 37 40 42 41 41 41 41 42 40 36 34 32 33 34 33 31 34 33 36 38
19 22 23 25 24 23 25 27 29 30 31 34 36 36 37 38 39 39 39 37 35 33 34 33 37 41 43 43 43 43 43 43 40 38 37 37 35 34 35 34 33 31 31
23 25 26 24 22 22 25 28 29 29 34 36 35 37 38 39 39 39 38 35 32 32 35 34 34 38 42 43 44 44 42 42 42 42 41 40 40 39 37 37 35 32 30
26 29 25 24 24 25 26 28 28 32 36 38 36 34 35 34 34 35 34 31 32 32 30 31 31 33 37 41 44 44 44 43 42 43 42 42 43 42 39 39 37 32 30
27 27 27 26 25 26 26 27 29 34 37 35 32 32 30 29 31 33 31 31 29 31 31 30 31 30 31 35 39 41 42 42 43 43 45 44 43 43 40 40 40 37 35
27 30 27 27 26 25 25 26 31 32 31 30 29 26 26 28 31 36 34 33 34 34 32 31 30 30 31 31 34 36 35 37 39 39 40 43 44 43 40 40 40 39 38
31 30 26 26 25 24 26 26 29 27 25 25 19 18 19 23 28 26 25 23 22 21 23 25 27 28 27 29 29 29 30 31 32 34 36 40 41 40 41 39 39 40 43
28 26 26 24 23 24 26 26 26 25 20 20 20 19 20 24 24 28 16 14 16 16 16 16 18 19 19 19 21 22 24 26 28 31 34 37 39 40 41 43 43 43 43
25 26 25 22 23 25 25 24 24 24 20 18 19 19 18 20 22 24 29 21 11 16 14 13 15 18 19 18 19 16 18 22 23 25 28 30 33 36 37 39 40 39 42
26 25 23 22 23 25 24 23 22 20 20 18 19 17 15 14 16 16 17 20 21 15 12 8 8 8 11 10 10 13 13 15 17 19 20 22 25 26 28 30 32 35 36
27 22 22 21 22 23 22 22 19 19 20 18 19 16 15 15 12 11 11 11 11 13 14 14 13 13 12 11 11 10 8 8 7 7 7 6 6 7 10 10 10 11 15
23 23 19 20 23 23 22 21 19 19 18 18 17 16 15 14 13 13 12 11 9 8 7 6 5 6 6 6 6 6 6 5 5 6 6 7 8 8 8 9 9 9 9
23 21 21 22 23 22 22 20 19 17 16 16 15 14 13 14 14 13 13 12 12 11 10 10 9 8 7 6 6 6 6 6 6 7 8 9 11 13 14 14 14 14 14
24 26 25 21 22 23 22 20 17 18 19 19 17 15 14 13 14 16 16 16 15 14 14 15 16 15 15 16 16 15 15 16 17 19 20 21 22 22 23 23 23 22 22
Wind_Direction
191 200 199 207 210 214 206 210 204 217 238 239 236 237 245 245 232 244 244 250 252 265 268 271 265 266 262 265 259 262 249 261 253 249 267 271 280 273 205 218 237 263 257
194 197 207 210 216 225 228 230 222 219 221 231 233 235 247 241 239 237 247 257 254 256 258 263 262 266 272 271 261 262 260 263 256 251 265 269 294 306 200 223 235 260 266
212 220 226 215 210 215 220 224 224 228 236 239 247 250 247 236 238 243 248 253 258 260 260 262 264 258 264 268 271 267 265 270 278 278 257 264 262 248 222 233 241 250 261
210 213 218 226 234 239 242 244 244 244 245 248 246 244 248 254 254 254 257 260 262 262 263 262 264 266 261 259 255 260 264 270 273 275 278 270 255 246 239 235 243 249 258
232 232 230 244 251 256 260 262 261 261 262 262 258 257 256 256 257 260 261 263 264 262 263 262 260 258 262 259 256 258 258 266 268 271 283 278 281 234 248 242 245 248 255
219 222 224 214 232 245 252 263 269 267 267 268 270 270 264 261 259 258 258 261 263 264 263 259 261 260 258 257 257 260 263 263 265 262 270 280 272 269 273 261 253 254 252
230 233 239 242 243 249 262 268 265 263 266 269 270 270 271 269 267 265 265 264 259 258 259 260 261 261 257 260 259 262 265 265 265 265 265 265 268 266 273 279 283 274 269
247 255 259 264 264 266 268 270 273 274 276 279 280 277 273 270 267 268 267 266 266 264 262 260 259 259 260 262 264 265 265 266 264 264 263 261 264 267 268 272 273 274 271
260 262 265 269 271 270 271 273 275 283 284 280 279 279 273 272 270 266 267 265 265 265 266 264 263 261 261 258 261 265 267 268 267 261 260 265 265 265 266 268 269 265 262
259 260 261 274 278 273 261 262 293 299 288 282 283 283 281 277 276 273 273 272 265 260 261 262 261 259 259 262 261 259 263 266 264 264 262 266 266 260 263 257 258 262 261
252 256 256 259 263 265 260 267 295 299 298 293 291 286 284 284 281 278 276 274 271 267 263 262 260 258 258 259 259 260 257 257 262 261 261 262 268 273 271 255 254 258 258
243 245 254 262 265 266 271 279 284 288 290 289 287 285 283 282 282 281 281 277 272 268 264 261 261 258 256 257 258 257 257 256 259 262 263 263 263 265 264 268 257 258 257
242 256 267 274 274 275 278 278 281 287 290 294 293 289 288 285 282 280 279 279 275 271 265 261 258 259 258 256 255 255 255 256 257 257 257 259 260 262 266 267 271 269 275
241 258 272 272 275 279 279 283 288 291 293 296 293 288 288 287 282 281 281 279 276 272 270 268 261 256 256 257 257 254 254 257 257 257 256 255 258 261 263 267 268 270 261
244 264 269 278 284 284 286 291 294 296 298 295 292 291 291 290 287 285 283 279 273 275 275 274 266 257 254 254 255 256 255 256 259 257 256 257 258 259 261 262 265 269 272
259 267 274 281 285 291 294 296 291 296 300 302 300 296 293 289 288 287 282 275 277 278 274 275 275 266 257 253 254 256 256 255 257 259 259 259 261 260 260 262 265 266 266
263 269 275 279 283 292 296 294 296 301 304 305 304 299 293 293 295 293 285 272 268 270 272 275 275 272 267 261 258 256 254 253 253 256 260 261 261 260 260 258 260 263 262
259 264 275 280 284 292 294 293 297 300 308 311 305 301 304 308 308 302 285 275 273 273 271 272 276 274 270 265 261 260 258 254 254 256 255 258 260 260 257 256 256 258 262
256 266 273 278 281 287 284 291 297 304 311 317 322 315 317 332 341 321 303 289 274 270 271 272 267 273 272 267 264 262 259 259 259 256 253 253 257 260 259 255 256 257 262
258 267 270 275 285 287 285 294 298 301 302 310 313 312 321 330 341 0 336 303 286 270 268 281 275 273 272 271 268 266 262 261 259 259 259 258 258 262 261 255 256 261 262
254 262 273 275 283 282 284 290 298 296 297 307 304 309 316 329 339 357 16 18 334 288 278 270 285 283 274 280 274 272 281 269 268 268 267 265 264 263 264 261 261 262 264
254 261 270 277 278 278 281 288 296 285 289 299 304 312 310 320 331 346 359 11 26 29 20 345 320 316 310 307 284 274 281 280 278 277 277 275 268 265 264 264 266 262 261
249 257 264 269 272 272 278 288 289 277 282 290 294 294 293 303 314 328 342 351 8 34 50 58 54 55 57 55 54 49 43 38 33 18 23 1 330 307 291 281 275 278 267
246 251 258 264 267 272 279 286 285 274 273 281 285 284 284 286 299 311 322 327 325 331 339 357 12 20 18 16 20 28 17 14 1 350 341 337 337 337 332 330 318 302 289
244 248 252 258 264 273 280 284 287 276 272 273 273 279 289 291 288 289 296 300 307 307 303 300 303 308 309 303 300 301 302 305 303 307 313 323 327 324 320 316 307 299 292
240 247 249 257 268 272 280 282 283 276 276 272 270 278 285 283 280 279 280 285 290 289 288 286 288 287 287 287 285 282 279 283 288 293 295 298 300 301 303 302 299 295 290